Miscellaneous Local Product
Issued by NWS North Platte, NE

Home | Current Version | Previous Version | Graphics & Text | Print | Product List | Glossary On
Versions: 1 2 3 4 5 6 7 8 9 10 11 12 13 14 15 16 17 18 19 20 21 22 23 24 25 26 27 28 29 30 31 32 33 34 35 36 37 38 39 40 41 42 43 44 45 46 47 48 49 50
511
AXUS43 KLBF 141310
MISLBF


WESTERN AND NORTH CENTRAL NEBRASKA HOURLY WEATHER ROUNDUP
NATIONAL WEATHER SERVICE NORTH PLATTE NE
700 AM CST SUN FEB 14 2016

NOTE: "FAIR" INDICATES FEW OR NO CLOUDS BELOW 12,000 FEET WITH NO
SIGNIFICANT WEATHER AND/OR OBSTRUCTIONS TO VISIBILITY.

NOTE: STATIONS NOT REPORTING VARIABLES SUCH AS SKY/WEATHER OR
PRESSURE ARE PROVIDED BY THE NEBRASKA DEPARTMENT OF
ROADS...RAWS...AND APRS NETWORKS...AND ARE NOT UNDER
NATIONAL WEATHER SERVICE QUALITY CONTROL.

...OBSERVATIONS IN AND NEAR THE EASTERN PANHANDLE OF NEBRASKA...

CITY           SKY/WX    TMP DP  RH WIND       PRES   REMARKS
PINE RIDGE     CLOUDY    28  22  78 W5        29.88F WCI  23
CHADRON        CLOUDY    27  22  81 VRB3      29.90F
ALLIANCE       CLOUDY    31  23  72 NW12      29.88F WCI  22
SIDNEY         CLOUDY    27  22  81 NW10      29.92F WCI  17
CRESCENT LAKE    N/A     30  22  72 W7          N/A  WCI  23
$$

...OBSERVATIONS IN NORTH CENTRAL NEBRASKA...

CITY           SKY/WX    TMP DP  RH WIND       PRES   REMARKS
VALENTINE      CLEAR     31  27  85 NW9       29.83F WCI  23
THEDFORD       CLEAR     35  28  78 W13G18    29.86S WCI  26
AINSWORTH      CLEAR     33  29  85 NW9       29.83F WCI  25
O`NEILL        CLOUDY    38  33  84 NW16      29.80S WCI  29
ORD            MOCLDY    38  29  70 W16       29.84R WCI  29
BROKEN BOW     CLEAR     35  27  72 W12       29.86S WCI  27
VALENTINE NWR    N/A     34  27  76 W10         N/A  WCI  26
BUTTE            N/A     30  29  95 NW8         N/A  WCI  22
HALSEY           N/A     36  26  67 W10G18      N/A  WCI  28
CHAMBERS         N/A     38  34  87 N8G16       N/A  WCI  32
EWING            N/A     37  35  91 NW9         N/A  WCI  30
$$

...OBSERVATIONS IN SOUTHWEST NEBRASKA AND FAR NORTHEAST COLORADO...

CITY           SKY/WX    TMP DP  RH WIND       PRES   REMARKS
WRAY           FAIR      29  23  78 W5        29.94F WCI  24
HOLYOKE        FAIR      32  27  80 W7        29.94S WCI  26
IMPERIAL       CLEAR     31  23  72 NW9       29.92F WCI  23
OGALLALA       CLEAR     30  24  80 NW10      29.91F WCI  21
NORTH PLATTE   CLEAR     27  22  81 W9        29.90F WCI  18
MCCOOK         CLEAR     33  25  72 W12       29.93F WCI  24
LEXINGTON      CLEAR     32  26  78 W12       29.90F WCI  23
STAPLETON        N/A     30  26  85 CALM        N/A
$$

...OBSERVATIONS IN CENTRAL LINCOLN COUNTY AREA...

CITY           SKY/WX    TMP DP  RH WIND       PRES   REMARKS
N.P. AIRPORT   CLEAR     27  22  81 W9        29.90F WCI  18
N.P. DOWNTOWN    N/A     29  26  87 CALM        N/A
N.P. SOUTHEAST   N/A     30  25  83 CALM        N/A
N.P. HILLCREST   N/A     30  26  86 W7          N/A  WCI  23
$$

...SOME OBSERVATIONS FROM AROUND THE REGION...

CITY           SKY/WX    TMP DP  RH WIND       PRES   REMARKS
DENVER         CLOUDY    30  22  72 SE14      29.92F WCI  19
LARAMIE        CLOUDY    33  12  41 W23G30    29.93F WCI  21
CHEYENNE       CLOUDY    37  10  32 SW8       29.90F WCI  31
SCOTTSBLUFF    CLOUDY    28  23  81 W5        29.90F WCI  23
RAPID CITY     PTCLDY    28  22  78 NW5       29.83F WCI  23
BISMARCK       LGT SNOW  28  24  85 W7        29.75F FOG     WCI  21
PIERRE         CLOUDY    29  28  96 NW7       29.80S WCI  22
WINNER         CLOUDY    38  31  76 NW16G25   29.82R WCI  29
SIOUX FALLS    CLOUDY    14  10  84 SE10      29.87F WCI   1
OMAHA          CLOUDY    22   9  57 S14       29.93F WCI   9
GRAND ISLAND   CLEAR     28  23  81 W12       29.86S WCI  18
KANSAS CITY    CLOUDY    22   9  57 SE8       30.00S WCI  12
WICHITA        CLOUDY    25  11  55 NE3       29.99F
OKLAHOMA CITY  CLOUDY    49  46  90 N8        29.95R
LIBERAL        CLOUDY    32  25  74 N14       29.99F WCI  22
HAYS           CLEAR     23  12  63 W8        29.97S WCI  14
GOODLAND       CLOUDY    26  21  81 W9        29.98S WCI  17
$$




USA.gov is the U.S. government's official web portal to all federal, state and local government web resources and services.